Wind_Speed
20 22 24 26 28 30 32 34 35 37 38 39 40 41 41 41 41 40 39 38 36 35 34 34 33 33 33 32 31 30 29 29 28 28 27 27 26 26 26 25 24 23 22 21
19 22 24 26 29 31 33 35 37 39 40 40 41 42 43 42 42 42 41 40 39 37 37 36 35 34 34 34 34 34 33 33 32 32 31 30 30 29 30 30 27 25 24 24
18 20 23 26 28 31 33 36 38 39 41 41 42 43 43 43 43 43 42 41 40 38 37 37 36 36 36 35 36 37 36 37 36 35 35 34 34 35 35 32 29 28 25 24
17 20 23 26 28 30 34 36 38 40 41 42 42 41 43 41 40 40 39 39 38 37 36 36 36 36 36 36 36 38 39 39 39 38 38 39 39 39 39 36 32 30 28 26
18 20 22 25 27 29 32 34 35 37 39 40 41 41 39 40 38 37 36 35 35 34 32 32 33 34 35 36 37 38 39 40 41 40 40 41 41 42 41 39 34 32 32 29
17 20 21 23 25 27 29 32 34 34 34 35 33 33 34 35 33 32 32 32 32 31 31 31 32 32 34 35 36 37 39 41 41 41 42 42 43 43 42 41 39 34 32 29
18 19 20 22 25 28 31 32 32 30 28 26 24 24 27 27 27 27 27 28 28 28 28 28 29 31 32 34 35 36 37 40 40 40 42 43 44 44 42 40 36 32 29 27
19 20 21 23 26 29 30 29 26 23 19 18 18 18 20 20 21 22 24 24 24 25 26 27 27 28 29 31 32 33 34 35 37 39 39 40 41 40 40 38 33 29 27 25
19 20 22 24 26 28 28 24 20 16 13 11 11 12 14 14 15 17 18 20 22 22 23 24 24 24 25 27 27 28 29 31 32 34 34 34 33 32 33 32 28 25 23 22
20 21 23 25 26 26 24 21 18 13 9 6 5 6 7 7 8 9 13 15 17 19 20 20 20 20 21 23 24 25 25 26 29 31 30 29 28 28 28 24 21 21 20 19
21 22 23 24 25 24 23 21 18 13 10 6 3 4 4 5 5 6 8 9 11 12 14 15 15 16 17 18 21 21 22 22 23 25 25 24 23 22 20 19 18 17 15 14
21 22 23 23 24 24 22 21 18 14 12 9 7 7 5 5 6 6 4 4 4 7 8 9 10 11 12 13 14 15 15 16 17 17 16 15 14 13 12 12 12 11 11 11
21 22 23 23 24 24 23 21 19 16 13 11 9 8 6 6 7 7 5 3 1 1 4 5 5 6 6 7 8 9 9 9 10 10 10 9 8 7 7 7 7 9 10 11
21 22 22 23 23 23 23 21 19 17 14 13 12 10 9 9 9 8 8 7 5 5 3 2 1 0 1 3 5 6 6 6 8 8 7 6 6 6 6 7 8 10 12 13
20 21 22 22 22 23 22 21 20 18 16 14 14 13 12 11 10 11 11 11 10 9 7 7 5 4 3 2 3 3 3 3 4 5 5 5 6 7 8 9 10 11 12 14
21 21 21 21 21 22 22 21 19 18 16 15 14 13 12 12 12 12 11 11 11 11 10 8 7 7 6 5 4 3 2 1 1 3 5 6 7 8 9 10 11 12 14 15
21 22 22 21 21 20 21 20 19 17 15 14 14 13 13 13 13 12 11 10 10 10 10 9 8 8 7 6 5 5 4 4 5 5 6 8 9 9 10 12 13 13 14 15
21 21 22 21 21 20 19 18 17 16 14 13 12 12 11 11 11 11 11 10 10 10 9 9 9 8 8 7 6 6 6 6 7 8 9 11 12 12 13 14 15 15 16 16
21 21 22 22 21 20 19 18 16 14 13 13 12 11 11 10 10 9 9 9 9 9 9 9 9 9 9 8 8 8 8 9 9 10 11 12 13 14 15 16 17 17 18 18
20 21 22 22 21 21 20 18 16 14 12 12 11 10 9 9 8 8 8 7 7 7 8 8 9 9 9 10 10 10 10 10 11 11 12 13 14 15 16 16 17 17 18 18
19 20 21 22 22 21 20 18 16 14 13 12 12 10 9 8 8 8 7 6 6 6 7 8 8 9 10 10 11 11 11 11 12 12 13 14 14 15 15 16 16 17 17 18
18 19 20 21 21 21 20 18 17 14 13 12 12 12 10 8 8 7 7 6 6 6 7 7 9 10 10 11 11 12 12 12 13 13 13 14 14 15 15 15 15 16 16 17
17 18 19 20 20 20 21 19 17 15 14 13 13 12 11 9 8 8 7 6 6 6 7 8 9 11 11 12 12 13 13 13 13 13 13 13 13 13 13 13 13 13 14 14
15 16 17 18 19 20 21 19 18 17 16 15 13 13 12 10 9 8 7 6 5 6 7 8 10 10 11 12 13 14 14 14 14 14 13 13 12 12 10 10 10 11 11 11
15 16 17 17 17 19 20 19 19 18 18 16 15 13 12 11 10 8 7 6 6 6 7 8 9 10 12 13 14 14 15 15 15 14 14 13 12 11 10 9 9 8 8 7
14 15 16 17 17 18 18 19 19 19 19 18 17 15 14 13 10 8 6 5 5 5 6 8 9 10 11 13 14 15 15 16 16 15 15 14 13 12 11 10 9 8 7 7
Wind_Direction
260 265 268 271 272 273 273 272 272 272 272 271 271 271 270 270 270 269 268 267 267 266 266 266 265 266 267 266 266 266 267 268 269 270 273 274 273 274 270 264 260 258 255 253
271 274 277 279 279 279 279 278 277 276 274 273 272 272 271 271 270 269 268 267 266 265 265 265 264 264 264 263 263 263 263 263 265 267 270 271 271 271 271 265 261 257 256 254
283 286 287 286 286 286 285 284 282 280 278 276 274 273 272 270 270 269 268 268 267 265 264 264 263 262 261 260 260 260 260 260 261 262 265 268 269 268 267 268 262 257 257 255
296 297 295 295 295 294 292 290 286 283 280 277 275 274 273 271 269 269 268 268 267 265 263 261 260 260 258 258 257 257 257 257 259 259 261 264 266 268 267 265 263 261 259 256
310 308 306 304 303 302 299 295 291 286 282 278 276 274 272 271 269 267 266 266 265 264 262 259 258 258 258 257 256 254 254 255 256 258 259 261 262 265 267 264 265 262 260 255
321 319 318 316 314 312 309 304 298 293 287 281 277 272 269 269 267 265 263 262 261 261 260 258 257 256 256 256 256 255 255 254 254 256 257 259 262 265 265 265 263 262 259 255
333 331 328 325 322 319 316 312 308 302 295 286 277 270 266 267 263 261 258 257 257 256 255 253 253 254 253 254 255 256 255 254 254 256 257 259 261 264 267 267 265 262 257 253
342 340 337 334 330 326 325 322 317 308 300 288 275 266 265 264 262 259 255 253 252 251 250 250 253 254 254 254 254 254 255 254 254 256 258 260 262 264 267 264 264 260 259 256
353 349 345 342 340 339 338 338 331 320 311 298 283 266 264 266 264 261 257 252 248 248 249 251 254 255 256 257 257 256 256 255 254 256 257 260 260 263 264 262 261 260 257 250
3 358 355 354 351 352 355 357 355 348 344 331 306 299 276 274 271 269 258 253 248 248 250 251 252 254 255 258 260 260 259 260 257 258 260 260 262 261 259 258 259 253 249 244
8 6 5 4 4 5 9 12 14 17 20 19 8 356 339 315 313 298 284 266 254 248 247 250 251 253 255 259 260 262 261 260 255 254 257 259 255 253 254 254 246 239 236 235
13 12 11 12 14 15 17 21 25 29 34 40 34 19 358 358 358 351 334 292 258 245 243 244 248 253 255 259 258 254 257 252 249 248 247 249 243 241 239 235 231 235 239 244
18 16 16 17 19 21 23 27 32 38 41 41 44 39 20 12 17 19 30 28 25 177 200 217 235 242 246 249 238 238 243 241 241 239 237 236 232 233 237 242 250 254 256 257
22 21 21 22 22 23 27 31 33 39 42 45 49 45 38 38 38 47 48 49 59 69 99 119 134 129 221 221 213 216 223 232 240 237 238 240 245 251 259 264 265 263 262 264
24 24 23 23 24 26 27 31 35 40 44 45 44 48 50 49 49 53 57 62 67 70 75 83 84 91 88 106 174 186 203 216 226 236 251 258 268 271 271 272 270 271 272 269
23 23 22 23 24 25 28 31 33 37 42 44 47 50 51 51 50 53 56 58 59 61 60 63 65 65 57 56 62 59 32 354 307 289 279 277 281 284 280 278 278 276 275 273
23 21 20 20 19 22 26 27 30 34 39 41 43 45 48 47 48 47 49 49 50 48 45 44 45 46 43 38 33 24 9 339 318 306 298 293 293 289 284 282 281 277 277 275
22 20 20 18 17 20 20 23 25 29 34 36 38 37 39 38 41 42 43 45 46 47 44 42 40 35 30 23 12 358 344 332 317 308 305 301 298 295 291 286 283 280 278 276
21 20 19 17 17 18 18 18 20 24 29 30 31 31 31 32 35 35 35 34 33 33 33 32 30 24 18 11 1 351 341 331 322 315 309 304 300 296 291 288 285 282 279 277
20 19 18 17 15 16 14 15 17 19 22 22 23 20 19 22 23 23 22 20 20 21 20 19 16 11 5 360 354 346 339 331 324 317 312 307 302 297 292 288 285 283 281 278
18 17 17 16 15 15 14 14 15 17 14 12 12 11 9 9 9 8 10 12 13 11 10 10 8 3 359 355 351 344 338 332 325 319 313 308 303 299 295 291 288 285 282 279
16 15 15 15 15 15 15 16 16 16 13 10 6 3 2 0 358 357 359 1 1 4 8 8 6 2 358 356 353 348 343 338 333 327 321 316 310 305 301 297 293 289 285 281
11 12 12 14 15 14 14 15 14 14 11 7 3 359 354 351 347 349 352 351 350 358 2 3 3 3 2 0 358 354 350 346 342 337 332 328 323 317 310 304 300 296 292 287
4 5 6 7 8 9 10 12 12 11 9 5 359 355 349 343 342 345 349 350 348 351 357 2 4 6 8 7 5 2 359 356 354 351 348 345 340 335 329 322 316 310 305 299
355 358 359 359 359 2 6 9 10 10 8 5 360 355 350 343 340 340 345 351 349 349 358 4 9 11 12 11 11 9 8 7 5 4 3 1 359 357 354 349 344 340 333 325
343 349 353 355 356 357 1 4 6 7 6 3 2 358 354 351 346 344 346 350 353 360 7 11 15 17 17 17 16 16 15 16 16 16 15 14 14 16 16 15 13 11 6 2
Height
5883 5884 5883 5882 5881 5880 5878 5877 5875 5873 5871 5870 5869 5867 5867 5866 5867 5867 5867 5868 5869 5869 5870 5870 5870 5871 5871 5871 5872 5872 5873 5872 5872 5871 5871 5870 5869 5869 5868 5868 5868 5868 5869 5869
5881 5880 5878 5876 5875 5873 5871 5869 5866 5863 5861 5860 5859 5857 5856 5856 5855 5855 5856 5857 5858 5859 5860 5861 5862 5862 5863 5864 5864 5864 5865 5865 5865 5864 5864 5863 5862 5861 5862 5861 5861 5861 5862 5862
5877 5876 5873 5870 5868 5865 5862 5859 5856 5853 5850 5848 5847 5846 5844 5844 5843 5844 5844 5845 5847 5849 5850 5851 5852 5853 5854 5855 5855 5856 5856 5857 5857 5856 5856 5855 5854 5853 5853 5853 5854 5854 5854 5855
5873 5870 5867 5864 5860 5857 5853 5849 5845 5841 5839 5837 5836 5835 5832 5832 5832 5832 5833 5834 5836 5837 5839 5840 5841 5842 5844 5845 5846 5847 5847 5848 5848 5848 5849 5848 5847 5846 5845 5845 5846 5846 5847 5848
5868 5865 5861 5857 5853 5849 5844 5839 5835 5830 5826 5824 5823 5822 5822 5820 5820 5821 5822 5823 5825 5827 5829 5830 5831 5832 5833 5835 5836 5837 5838 5838 5839 5840 5840 5840 5839 5838 5837 5836 5837 5838 5839 5841
5863 5859 5855 5851 5846 5841 5835 5830 5824 5819 5815 5813 5812 5812 5811 5810 5810 5811 5812 5813 5815 5816 5818 5820 5821 5823 5824 5825 5826 5827 5828 5829 5830 5831 5832 5832 5831 5830 5828 5828 5829 5830 5832 5834
5859 5855 5850 5845 5840 5834 5828 5821 5814 5809 5805 5804 5803 5802 5801 5801 5801 5802 5803 5804 5805 5807 5809 5810 5812 5813 5814 5815 5817 5818 5819 5820 5821 5822 5822 5823 5823 5822 5820 5820 5820 5822 5824 5826
5855 5851 5846 5841 5835 5828 5820 5813 5807 5802 5798 5796 5795 5795 5795 5794 5794 5794 5795 5796 5797 5799 5801 5802 5803 5805 5806 5807 5808 5809 5810 5811 5812 5813 5814 5814 5814 5814 5814 5814 5815 5816 5818 5820
5852 5848 5843 5837 5830 5823 5814 5806 5800 5796 5792 5791 5791 5790 5789 5789 5789 5789 5789 5790 5791 5792 5794 5795 5796 5797 5798 5799 5800 5801 5802 5803 5804 5805 5806 5806 5806 5807 5807 5807 5808 5810 5812 5814
5850 5846 5840 5834 5827 5819 5812 5804 5798 5793 5790 5790 5789 5788 5787 5786 5786 5786 5785 5786 5786 5787 5788 5789 5790 5791 5792 5793 5794 5795 5796 5796 5797 5798 5798 5799 5800 5800 5801 5802 5803 5805 5807 5808
5849 5845 5839 5833 5825 5818 5811 5805 5798 5794 5791 5790 5789 5790 5787 5786 5784 5783 5782 5782 5783 5783 5784 5785 5785 5786 5786 5787 5788 5789 5790 5790 5791 5791 5792 5793 5794 5795 5796 5797 5798 5800 5802 5804
5848 5844 5838 5833 5826 5819 5813 5806 5801 5797 5794 5791 5790 5792 5787 5786 5784 5783 5781 5780 5781 5781 5781 5781 5782 5782 5782 5783 5783 5784 5785 5785 5786 5787 5788 5788 5789 5791 5792 5793 5794 5796 5797 5799
5848 5844 5839 5833 5829 5822 5815 5809 5804 5800 5797 5795 5793 5794 5789 5787 5785 5783 5782 5781 5780 5779 5779 5779 5780 5780 5780 5780 5780 5781 5782 5782 5783 5784 5785 5786 5786 5787 5789 5790 5791 5792 5793 5794
5849 5844 5840 5836 5829 5823 5818 5812 5808 5804 5801 5798 5796 5794 5792 5789 5788 5785 5784 5782 5781 5780 5779 5779 5779 5779 5778 5778 5778 5779 5780 5780 5781 5782 5783 5784 5785 5785 5786 5787 5788 5789 5790 5790
5850 5845 5841 5836 5831 5825 5820 5815 5811 5808 5804 5802 5799 5796 5795 5793 5790 5788 5787 5785 5784 5782 5781 5781 5780 5779 5779 5778 5778 5778 5779 5779 5780 5780 5781 5782 5783 5783 5784 5784 5785 5785 5785 5785
5851 5847 5842 5837 5832 5828 5823 5818 5814 5810 5808 5805 5803 5801 5798 5796 5794 5792 5790 5789 5787 5786 5784 5783 5782 5781 5781 5780 5779 5779 5779 5779 5780 5780 5780 5781 5781 5781 5781 5781 5781 5781 5781 5781
5851 5847 5843 5839 5834 5830 5825 5821 5817 5813 5811 5808 5806 5805 5801 5799 5797 5795 5794 5792 5791 5789 5788 5787 5785 5784 5783 5782 5781 5781 5781 5780 5780 5780 5780 5779 5779 5778 5778 5778 5777 5777 5777 5777
5853 5848 5844 5840 5836 5831 5829 5823 5819 5816 5813 5811 5808 5806 5804 5802 5800 5798 5797 5795 5794 5792 5791 5789 5788 5787 5785 5784 5783 5782 5781 5780 5779 5778 5778 5777 5776 5775 5774 5774 5773 5773 5772 5772
5853 5849 5845 5840 5836 5832 5829 5824 5820 5818 5815 5813 5811 5809 5806 5805 5803 5801 5799 5797 5796 5794 5793 5791 5790 5788 5787 5785 5784 5782 5781 5779 5778 5777 5775 5774 5773 5772 5771 5770 5769 5768 5767 5766
5854 5850 5846 5841 5837 5833 5830 5825 5821 5820 5817 5814 5812 5810 5808 5806 5805 5803 5800 5798 5797 5795 5794 5792 5791 5789 5787 5786 5784 5782 5780 5778 5776 5775 5773 5771 5770 5768 5767 5765 5764 5763 5762 5761
5856 5851 5847 5842 5838 5834 5830 5825 5822 5821 5819 5815 5812 5810 5808 5806 5805 5803 5801 5799 5798 5796 5795 5793 5791 5790 5788 5786 5784 5782 5779 5777 5775 5773 5770 5768 5766 5764 5763 5761 5759 5758 5756 5755
5856 5852 5848 5844 5839 5837 5830 5826 5824 5821 5817 5815 5812 5810 5808 5806 5804 5802 5801 5799 5798 5796 5795 5793 5792 5790 5788 5786 5783 5781 5778 5775 5773 5770 5767 5765 5762 5760 5758 5756 5754 5752 5751 5750
5856 5853 5849 5846 5843 5837 5832 5827 5824 5820 5817 5815 5812 5810 5807 5805 5803 5801 5800 5798 5797 5796 5795 5793 5792 5790 5787 5785 5782 5780 5777 5774 5771 5768 5765 5762 5759 5756 5754 5752 5750 5748 5747 5745
5857 5853 5850 5846 5842 5838 5833 5828 5824 5820 5817 5814 5811 5809 5806 5804 5802 5800 5799 5798 5797 5796 5794 5793 5791 5789 5787 5785 5782 5779 5776 5773 5769 5766 5763 5759 5756 5753 5751 5749 5747 5745 5743 5742
5856 5853 5850 5846 5843 5838 5834 5830 5825 5821 5817 5814 5810 5808 5805 5802 5800 5798 5797 5796 5796 5795 5794 5792 5791 5789 5787 5785 5782 5779 5775 5772 5769 5765 5762 5758 5755 5752 5749 5747 5745 5743 5741 5739
5855 5852 5849 5846 5843 5839 5835 5830 5826 5822 5818 5813 5809 5806 5803 5800 5798 5796 5795 5795 5794 5794 5793 5792 5791 5789 5787 5785 5782 5779 5776 5772 5769 5765 5762 5758 5755 5752 5750 5747 5745 5743 5741 5739